格洛纳斯M-715 COSMOS 2424 [GLONASS-M]

导读

COSMOS 2424(编号宇宙2424)是独联体(CIS,实际为俄罗斯继承)于2006年12月25日发射的格洛纳斯(GLONASS)导航卫星,属于Uragan-M系列,由俄罗斯雷席特涅夫应用机械研究与生产联合会制造,在哈萨克斯坦拜科努尔发射场升空。该卫星运行于约19100公里的中圆地球轨道,轨道倾角64.8°,作为GLONASS系统组网卫星,为全球提供全天候定位、测速与授时服务,增强了系统覆盖稳定性,推动格洛纳斯全球化部署进程。

基本信息
目录编号:
29672
目录名称:
COSMOS 2424 (GLONASS)
国际标识:
2006-062C
轨道中心:
EARTH
卫星名称:
格洛纳斯M-715
卫星全名:
格洛纳斯M-715 COSMOS 2424 [GLONASS-M]
卫星状态:
在轨 (已飞行7200 天)
发射日期:
2006-12-25 UTC
国别 :
俄罗斯(独联体) (CIS)
星等 :
--
该卫星已列入 空间交会检测服务 Space Conjunction Data Service (SCDS) ,当前飞行风险评估等级: 无高风险
轨道信息
数据来源 国际轨道数据 AOE轨道数据
星历时间 2026-09-07T19:19:43+0800
4天前
查看轨道信息
2026-09-07T03:00:00+0800
4天前
查看轨道信息
半长轴 25506.381km 25506.365km
偏心率 0.001934 0.0019266
轨道倾角 64.698° 64.698°
近地点辐角 176.405° 176.386°
升交点赤经 191.564° 191.587°
平近点角 183.594° 21.609°
近地点 19078.914km 19079.087km
远地点 19177.574km 19177.369km
周期 675.667分钟 675.667分钟
每日圈数 2.131226 2.131228
详细信息
平衡模式:
三轴稳定
覆盖范围:
全球
运营商:
列舍特涅夫卫星信息系统
运营商所在国:
俄罗斯
制造商(研发单位):
列舍特涅夫卫星信息系统
制造商所在国:
俄罗斯
使用方式:
暂无
卫星简介
格洛纳斯(GLONASS )是苏联/俄罗斯研制卫星导航系统。标准配置为24颗卫星,其中18颗卫星就能保证该系统为俄罗斯境内用户提供全部服务。该卫星已退役。
2D轨道图
3D轨道图
轨道高度分析图
轨道倾角分析图
轨道综合分析图
查看轨道综合分析图
与全量物体交会距离演化趋势
与全量物体交会风险概率演化趋势